Lid_Strength_Index
2 2 2 3 4 4 4 4 4 3 3 3 3 2 1 1 1 3 3 2 4 7 6 5 5 7 7 7 10 9 9 9 11 13 13 15 16 14 14 12 14 14 16 19 18 21 18 9 10 13 11 9 8 8
3 3 4 4 4 4 4 4 4 4 4 3 3 2 2 2 1 2 4 1 1 6 6 5 5 4 5 5 6 7 9 9 8 11 12 13 15 16 15 16 11 14 13 14 14 14 10 9 10 9 8 8 8 8
4 4 4 4 4 4 4 4 4 3 3 3 2 2 2 2 1 3 3 3 4 8 8 7 7 4 3 4 3 8 8 6 7 7 10 11 14 13 15 15 13 11 9 12 12 10 9 8 8 8 8 8 8 7
3 4 4 3 3 3 3 3 3 3 2 2 2 2 1 1 2 1 3 3 5 6 10 8 2 4 2 3 4 4 4 4 6 7 11 13 14 9 12 11 12 10 9 11 12 10 8 8 9 10 10 9 10 10
3 3 3 3 3 3 3 3 3 2 2 2 1 0 1 0 0 1 2 2 3 5 9 9 5 3 2 3 4 4 4 6 9 11 14 12 11 11 13 12 12 10 11 12 13 9 9 9 10 9 10 10 10 11
3 3 3 3 3 3 3 3 2 2 2 0 -0 -0 -0 -0 1 2 5 4 2 2 7 10 5 5 4 4 4 5 5 6 7 9 11 9 8 11 13 14 10 9 8 9 9 8 10 11 10 10 11 11 11 11
2 2 2 2 2 1 1 1 1 1 0 0 0 0 -0 1 2 5 8 6 2 2 6 11 11 6 5 5 6 6 6 8 8 9 12 11 10 11 15 16 10 10 10 10 10 10 12 11 12 11 11 11 11 12
2 2 2 1 1 1 1 1 1 1 0 0 0 -0 0 1 2 6 2 2 2 4 5 10 11 9 6 9 9 8 10 9 9 10 11 14 11 13 14 11 10 9 10 10 11 10 11 11 12 12 12 12 13 13
1 0 1 0 0 1 0 0 0 0 0 0 -0 -0 1 4 6 4 2 1 2 5 9 11 13 13 7 9 10 10 10 13 10 14 12 10 13 13 11 11 11 10 10 12 12 12 12 13 13 13 12 13 14 14
0 0 0 0 0 0 0 0 0 0 0 0 2 5 8 6 1 1 3 5 6 5 8 12 9 12 8 13 13 12 13 13 14 12 11 13 14 12 11 10 10 10 11 11 13 14 13 13 13 13 13 13 13 14
1 1 1 0 0 0 0 1 1 1 1 5 6 7 3 2 4 5 10 10 10 12 11 11 10 10 9 13 13 13 14 15 14 13 13 14 14 13 10 10 10 10 10 11 10 11 11 11 13 13 13 14 15 15
2 2 2 2 2 1 2 2 3 5 6 5 4 2 3 5 8 11 13 12 12 13 12 12 11 10 12 10 13 13 13 15 15 11 13 14 14 11 10 10 10 10 10 10 10 10 11 11 12 13 14 15 15 15
4 5 4 4 4 4 4 3 4 4 3 3 5 8 7 11 12 14 15 14 15 13 13 12 13 12 12 12 14 15 18 16 13 14 14 14 11 10 10 10 10 9 10 11 11 12 12 13 13 14 15 15 15 16
5 5 5 4 4 5 4 4 4 4 4 9 11 14 14 15 14 14 14 14 13 13 13 12 13 13 13 14 15 16 14 14 21 19 17 13 11 11 11 11 12 12 13 13 13 13 14 15 15 15 16 16 17 18
5 5 5 5 5 4 5 5 5 6 9 13 13 16 16 14 13 14 14 13 13 12 13 13 13 12 14 14 15 14 15 16 19 19 14 13 11 12 12 13 14 14 14 14 14 15 15 16 16 16 16 16 17 19
6 6 7 5 5 5 5 6 8 8 11 13 14 14 13 13 14 13 13 13 12 13 13 13 14 14 15 14 15 16 18 18 16 15 13 12 12 13 13 13 13 13 14 14 14 14 15 16 17 17 17 17 19 19
7 9 7 6 5 6 6 8 12 14 13 14 15 13 14 14 14 14 13 13 12 13 14 15 15 15 14 16 17 15 17 16 14 13 13 13 13 13 13 13 13 13 14 14 15 15 16 16 17 17 18 18 17 18
9 8 6 6 6 7 8 10 13 13 15 14 15 15 14 14 14 14 14 13 15 14 13 14 14 18 19 18 18 15 15 14 13 13 13 13 13 12 12 13 13 13 14 15 15 15 15 16 16 17 16 17 18 18
8 7 7 6 7 9 12 12 11 15 15 14 13 13 14 15 15 14 14 13 13 14 15 16 20 20 20 17 17 15 14 14 14 13 13 13 12 13 13 13 13 14 15 15 15 16 16 16 17 17 17 17 17 17
8 8 8 7 7 11 13 13 11 14 15 14 14 16 15 16 15 15 15 15 15 15 17 19 20 19 18 17 16 14 13 13 13 14 15 14 14 14 14 14 15 16 16 17 17 17 18 18 17 17 17 17 18 19
10 10 9 9 11 11 12 13 13 13 13 14 13 14 16 16 17 18 18 15 17 18 19 18 18 18 16 16 16 15 15 13 14 14 15 16 16 15 16 16 16 17 18 18 19 19 18 17 17 17 18 19 19 18
11 9 14 12 13 13 13 13 13 13 13 14 14 14 15 18 18 18 17 20 20 19 18 18 19 18 18 18 18 17 16 16 16 17 17 16 18 18 18 18 18 19 19 18 17 18 18 17 17 17 19 19 18 18
10 12 15 15 17 16 15 13 14 13 15 15 14 16 16 16 16 15 21 20 20 18 17 18 18 18 18 18 17 17 17 17 18 19 19 19 19 19 19 19 18 18 18 17 16 17 18 17 18 19 19 19 19 21
11 17 19 19 18 21 17 17 14 15 15 16 17 18 17 17 16 20 23 22 20 19 19 19 18 19 19 19 20 20 19 18 19 19 18 19 20 20 19 19 19 19 18 18 19 20 20 20 20 20 22 24 24 25
15 17 18 21 19 19 21 22 20 18 19 18 19 18 18 18 22 23 24 22 22 22 21 20 20 20 21 21 21 21 19 19 20 21 19 18 18 19 20 20 20 20 19 21 23 23 23 23 24 25 24 28 23 26
18 16 15 18 16 17 19 21 20 20 22 23 20 18 20 22 24 25 22 22 22 21 21 21 21 21 21 20 21 20 19 18 19 21 20 19 19 20 22 22 22 21 21 24 26 27 28 30 31 30 31 28 27 30
18 17 15 12 14 14 18 19 17 20 21 21 20 22 24 27 26 21 18 18 18 18 17 17 18 19 19 19 19 19 18 18 19 19 19 20 20 20 23 25 25 22 21 26 29 29 28 29 31 30 30 34 33 32
13 13 17 19 19 17 21 23 22 21 20 16 21 26 28 27 23 18 17 16 17 17 18 19 19 20 21 21 21 20 20 20 20 20 21 21 21 21 21 21 21 19 22 24 27 30 29 26 26 27 29 27 27 30
16 17 17 21 21 20 19 21 20 18 17 19 27 25 23 20 20 18 17 16 16 17 19 20 22 24 23 22 23 23 23 26 26 28 32 33 30 27 24 25 26 26 28 28 24 21 22 24 27 28 27 28 25 27
18 18 20 23 22 20 20 19 21 23 18 20 18 19 20 20 18 16 17 18 20 21 24 24 24 25 31 28 29 26 27 30 29 29 32 32 29 28 33 33 32 32 33 32 31 28 23 28 26 29 29 28 30 31
18 18 20 20 18 19 18 19 17 20 24 23 26 25 24 22 21 18 18 20 21 24 25 27 27 32 27 30 32 32 29 27 28 29 29 31 32 33 34 33 34 35 35 35 34 34 33 33 33 32 30 28 26 26
21 25 21 20 18 17 17 17 23 23 27 26 26 28 26 27 27 23 21 23 22 23 27 31 28 25 30 31 31 30 27 29 30 30 29 29 28 30 32 32 34 35 34 35 36 35 34 33 34 34 34 32 31 29
23 24 24 22 18 18 16 14 18 21 23 24 24 24 26 28 28 23 21 25 27 28 28 28 29 29 26 28 30 31 30 32 31 25 25 25 27 28 31 33 34 34 34 35 35 35 33 32 34 34 34 34 34 33